This is the latest recevied weather packets stored in our database for station/object K9YK-13. If no packets are shown the sender has not sent any weather packets the latest 1 day(s).
| Time | Temp. | Humidity | Pressure | Rain* | Wind** | Luminosity | Snow |
|---|---|---|---|---|---|---|---|
| 1778068869 | 6.67° C | 98% | 0 hPa | 0 mm | - | - | - |
| 1778054470 | 7.78° C | 97% | 0 hPa | 0 mm | - | - | - |
| 1778053269 | 7.78° C | 96% | 0 hPa | 0 mm | - | - | - |
| 1778052669 | 7.78° C | 96% | 0 hPa | 0 mm | - | - | - |
| 1778052369 | 7.78° C | 94% | 0 hPa | 0 mm | - | - | - |
| 1778051469 | 7.78° C | 96% | 0 hPa | 0 mm | - | - | - |
| 1778048769 | 8.33° C | 90% | 0 hPa | 0 mm | - | - | - |
| 1778048470 | 8.33° C | 89% | 0 hPa | 0 mm | - | - | - |
| 1778046370 | 8.89° C | 85% | 0 hPa | 0 mm | - | - | - |
| 1778044870 | 8.89° C | 85% | 0 hPa | 0 mm | - | - | - |
| 1778043969 | 7.78° C | 84% | 0 hPa | 0 mm | - | - | - |
| 1778042769 | 8.89° C | 95% | 0 hPa | 0 mm | - | - | - |
| 1778042169 | 10° C | 96% | 0 hPa | 0 mm | - | - | - |
| 1778040969 | 9.44° C | 97% | 0 hPa | 0 mm | - | - | - |
| 1778040669 | 9.44° C | 97% | 0 hPa | 0 mm | - | - | - |
| 1778039769 | 9.44° C | 97% | 0 hPa | 0 mm | - | - | - |
| 1778039169 | 9.44° C | 97% | 0 hPa | 0 mm | - | - | - |
| 1778037969 | 10° C | 97% | 0 hPa | 0 mm | - | - | - |
| 1778037369 | 9.44° C | 97% | 0 hPa | 0 mm | - | - | - |
| 1778037069 | 9.44° C | 97% | 0 hPa | 0 mm | - | - | - |
| 1778036470 | 10° C | 96% | 0 hPa | 0 mm | - | - | - |
| 1778035870 | 10° C | 96% | 0 hPa | 0 mm | - | - | - |
| 1778035269 | 10.56° C | 96% | 0 hPa | 0 mm | - | - | - |
| 1778034370 | 10.56° C | 96% | 0 hPa | 0 mm | - | - | - |
| 1778034069 | 10.56° C | 96% | 0 hPa | 0 mm | - | - | - |
* Rain latest hour (hover to see other rain measurements)
** Current wind speed in m/s (hover to see current wind gust speed)